Home > Weather > Bitterfeld-Wolfen > Past weeks

Flag for Germany Weather for the Past 2 Weeks in Bitterfeld-Wolfen, Saxony-Anhalt, Germany

Now
63 °F

Partly sunny.


Feels Like: 63 °F
Forecast: 42 / 64 °F
Wind: 14 mph from Northeast

Location: Leipzig-Schkeuditz

Current Time: May 1, 2016 at 3:46:40 PM

Latest Report: May 1, 2016 at 3:20 PM


Visibility: N/A

Pressure: 30.18 "Hg

Humidity: 42%

Dew Point: 39 °F

Location of Bitterfeld-WolfenLocation

Historic Weather in Bitterfeld-Wolfen — Graph

°F

Bitterfeld-Wolfen Temperature Yesterday

Maximum temperature yesterday: 66 °F (at 2:20 PM)
Minimum temperature yesterday: 39 °F (at 4:50 AM)
Average temperature yesterday: 53 °F

High & Low Weather Summary for the Past Weeks

 TemperatureHumidityPressure
High66 °F (Apr 30, 2:20 PM)100% (Apr 17, 6:50 AM)30.42 "Hg (Apr 17, 6:50 AM)
Low28 °F (Apr 25, 2:20 AM)32% (Apr 30, 1:50 PM)29.47 "Hg (Apr 26, 3:20 AM)
Average45 °F69%29.95 "Hg
* Reported Apr 16 2:20 PM — May 1 2:20 PM, Bitterfeld-Wolfen, Weather by CustomWeather, © 2016

Note: Actual official high and low records may vary slightly from our data, if they occured in-between our weather recording intervals... More about our weather records

Advertising

Bitterfeld-Wolfen Weather History for the Previous 24 Hours

Scroll right to see more
 ConditionsComfort  
Time TempWeatherWind HumidityBarometerVisibility
2:20 PM
Sun, May 1
63 °FPartly sunny.15 mph42%30.18 "HgN/A
1:50 PM61 °FPartly sunny.16 mph45%30.18 "HgN/A
1:20 PM61 °FOvercast.16 mph42%30.18 "HgN/A
12:50 PM61 °FOvercast.17 mph52%30.18 "HgN/A
12:20 PM61 °FOvercast.14 mph59%30.18 "HgN/A
11:50 AM59 °FOvercast.16 mph63%30.15 "HgN/A
11:20 AM57 °FPassing clouds.13 mph63%30.15 "HgN/A
10:50 AM55 °FPassing clouds.10 mph72%30.15 "HgN/A
10:20 AM52 °FSunny.10 mph72%30.15 "Hg10 mi
9:50 AM48 °FSunny.10 mph82%30.15 "Hg10 mi
8:50 AM46 °FSunny.12 mph82%30.15 "Hg10 mi
8:20 AM45 °FSunny.10 mph87%30.15 "Hg10 mi
7:50 AM45 °FSunny.12 mph87%30.12 "Hg10 mi
7:20 AM43 °FSunny.12 mph93%30.12 "Hg10 mi
6:20 AM41 °FClear.10 mph93%30.09 "Hg5 mi
5:50 AM41 °FClear.9 mph93%30.09 "Hg4 mi
5:20 AM41 °FClear.12 mph93%30.09 "Hg4 mi
4:20 AM43 °FClear.12 mph93%30.09 "Hg10 mi
3:50 AM43 °FClear.12 mph93%30.07 "Hg10 mi
3:20 AM43 °FClear.13 mph93%30.07 "Hg10 mi
2:50 AM43 °FClear.13 mph100%30.07 "Hg10 mi
2:20 AM43 °FClear.10 mph100%30.07 "Hg10 mi
1:50 AM45 °FClear.13 mph93%30.07 "Hg10 mi
1:20 AM46 °FClear.14 mph87%30.07 "Hg10 mi
12:50 AM46 °FClear.12 mph93%30.07 "Hg10 mi
12:20 AM46 °FClear.13 mph93%30.07 "Hg10 mi
11:50 PM
Sat, Apr 30
48 °FClear.13 mph82%30.07 "Hg10 mi
10:50 PM50 °FClear.12 mph71%30.04 "Hg10 mi
10:20 PM52 °FClear.13 mph67%30.04 "Hg10 mi
9:50 PM52 °FClear.15 mph72%30.04 "Hg10 mi
9:20 PM54 °FSunny.14 mph67%30.04 "Hg10 mi
8:50 PM55 °FSunny.12 mph63%30.04 "Hg10 mi
8:20 PM55 °FSunny.7 mph55%30.01 "Hg10 mi
7:50 PM59 °FSunny.8 mph45%30.01 "Hg10 mi
7:20 PM61 °FSunny.10 mph42%30.01 "Hg10 mi
6:50 PM61 °FSunny.13 mph42%30.01 "Hg10 mi
6:20 PM61 °FSunny.15 mph42%30.01 "Hg10 mi
5:50 PM64 °FSunny.14 mph34%30.01 "Hg10 mi
5:20 PM63 °FSunny.14 mph39%30.01 "Hg10 mi
4:50 PM63 °FSunny.12 mph42%30.01 "Hg10 mi
4:20 PM63 °FSunny.10 mph39%30.01 "Hg10 mi
3:50 PM63 °FSunny.14 mph39%30.01 "Hg10 mi
3:20 PM64 °FPassing clouds.7 mph34%30.01 "HgN/A
Weather by CustomWeather, © 2016

See weather overviewHow to use our weather pages